Satellite-Ground Cal/Val Site Overpasses Predictions

Prediction of Satellite NPP Overpassing Cal/Val Site: Antarctic Dome C

Ground Cal/Val Site Location: Latitude: -75.10, Longitude: 123.35; Satellite-Ground Site NADIR distance within 100 km.

Table of predicted overpasses for the next 14.0 days since TLE Epoch: 9/13/2019
Interval Starting Time Ending Time Minimum Distance Time Minimum Distance (km)
1 09/16/2019 14:55:18 09/16/2019 14:55:46 09/16/2019 14:55:32 22.54
2 09/17/2019 14:36:36 09/17/2019 14:36:51 09/17/2019 14:36:43 84.47
3 09/18/2019 07:38:07 09/18/2019 07:38:35 09/18/2019 07:38:21 34.73
4 09/19/2019 07:19:22 09/19/2019 07:19:41 09/19/2019 07:19:32 75.32
5 09/21/2019 15:01:37 09/21/2019 15:02:00 09/21/2019 15:01:49 59.50
6 09/22/2019 14:42:46 09/22/2019 14:43:11 09/22/2019 14:42:59 49.79
7 09/23/2019 07:44:27 09/23/2019 07:44:48 09/23/2019 07:44:38 69.86
8 09/24/2019 07:25:35 09/24/2019 07:26:02 09/24/2019 07:25:49 38.18
9 09/26/2019 15:08:01 09/26/2019 15:08:08 09/26/2019 15:08:04 97.08


NCC Satellite Cal/Val Overpasses Prediction Service
